AirNav   ProFlight Series 2 Aviation Headset
 
 993 users online  

NE76 St Francis Medical Center Heliport
Grand Island, Nebraska, USA

GOING TO GRAND ISLAND?


FAA INFORMATION EFFECTIVE 18 JUNE 2020

Location

FAA Identifier: NE76
Lat/Long: 40-55-32.4900N 098-22-15.3000W
40-55.541500N 098-22.255000W
40.9256917,-98.3709167
(estimated)
Elevation: 2106 ft. / 642 m (estimated)
Variation: 07E (1990)
Time zone: UTC -5 (UTC -6 during Standard Time)
Zip code: 68803

Heliport Operations

Heliport use: Private use, MEDICAL USE.
Activation date: 02/1994
Control tower: no
ARTCC: MINNEAPOLIS CENTER
FSS: COLUMBUS FLIGHT SERVICE STATION
Attendance: CONTINUOUS
Wind indicator: yes
Segmented circle: no

Heliport Communications

WX ASOS at GRI (4 nm NE): PHONE 308-382-5590
WX AWOS-3 at AUH (17 nm E): 121.225 (402-694-5472)
WX ASOS at HSI (19 nm S): 120.525 (402-463-4029)

Nearby radio navigation aids

VOR radial/distance  VOR name  Freq  Var
GRIr209/4.3GRAND ISLAND VOR/DME112.0007E
HSIr001/19.5HASTINGS VOR/DME108.8007E
OBHr175/27.0WOLBACH VORTAC114.8007E
EARr062/(31.2)KEARNEY VOR111.2005E

 
NDB name  Hdg/Dist  Freq  Var  ID
SANCY314/4.138007EGR --. .-.
YORK267/34.225706EJYR .--- -.-- .-.

Heliport Services

Runway Information

Helipad H1

Dimensions: 45 x 45 ft. / 14 x 14 m
Surface: concrete
Latitude: 40-55.558167N
Longitude: 098-22.255000W
Elevation: 2106.0 ft.
Traffic pattern: leftleft

Heliport Ownership and Management from official FAA records

Ownership: Privately-owned
Owner: SAINT FRANCIS MED CENTER
2620 W FAIDLEY AVE BOX 9804
GRAND ISLAND, NE 68802
Phone 308-384-4600
Manager: DAVE KOZAK
2620 W FAIDLEY AVE BOX 9804
GRAND ISLAND, NE 68802
Phone 308-384-4600

Additional Remarks

FOR CD CTC MINNEAPOLIS ARTCC AT 651-463-5588.

Instrument Procedures

There are no published instrument procedures at NE76.

Some nearby airports with instrument procedures:

KGRI - Central Nebraska Regional Airport (4 nm NE)
KAUH - Aurora Municipal Airport - Al Potter Field (17 nm E)
07K - Central City Municipal Airport - Larry Reineke Field (18 nm NE)
KHSI - Hastings Municipal Airport (19 nm S)
08K - Harvard State Airport (21 nm SE)
 
Loc | Ops | Rwys | IFR | FBO | Links
Com | Nav | Svcs | Stats | Notes

Silverhawk Aviation, Inc.
AirBoss

 
Area around NE76 (St Francis Medical Center Heliport)
 
Road maps at: MapQuest Bing Google
 
Aerial photo
No photo
 
Sectional chart

 
Airport distance calculator
Flying to St Francis Medical Center Heliport? Find the distance to fly.

From to NE76

Sunrise and sunset
Times for 07-Jul-2020
 Local
(UTC-5)
 Zulu
(UTC)
Morning civil twilight05:3710:37
Sunrise06:1011:10
Sunset21:0702:07
Evening civil twilight21:4002:40

Current date and time
Zulu (UTC)  08-Jul-2020 02:43:14
Local (UTC-5)  07-Jul-2020 21:43:14
 
METAR
KGRI 
3nm NE 
080153Z AUTO 16008KT 10SM CLR 28/22 A2987 RMK AO2 SLP102 T02830217
KAUH 
17nm E 
080215Z AUTO 16006KT 10SM CLR 27/23 A2988 RMK AO2 T02700230
KHSI 
20nm S 
080153Z AUTO 17007KT 10SM CLR 29/19 A2989 RMK AO2 SLP101 T02890194
TAF
KGRI 
3nm NE 
071721Z 0718/0818 15011KT P6SM SKC FM071900 15015G20KT P6SM FEW050 FM080300 17012KT P6SM SKC FM081000 18010KT P6SM FEW250 WS013/20040KT FM081300 18012KT P6SM FEW250
NOTAMs
Click for the latest NOTAMs
NOTAMs are issued by the DoD/FAA and will open in a separate window not controlled by AirNav.

 

 
 

Would you like to see your business listed on this page?

 If your business provides an interesting product or service to pilots, flight crews, aircraft, or users of the St Francis Medical Center Heliport, you should consider listing it here.  To start the listing process, click on the button below
 
Add a business
 

Other Pages about St Francis Medical Center Heliport

Update a link
 
Copyright © AirNav, LLC. All rights reserved. Privacy Policy  Contact